Home   Weather   Davenport   Past weeks

Flag for USA Past Weather in Davenport, Iowa, USA — Yesterday and Last 2 Weeks

Now
33 °F

Fog.


Feels Like: 27 °F
Forecast: 31 / 44 °F
Wind: 7 mph from West

Location: Davenport Municipal Airport

Current Time: Jan 18, 2017 at 1:57:51 am

Latest Report: Jan 18, 2017 at 1:12 am


Visibility: 4 mi

Pressure: 30.10 "Hg

Humidity: 96%

Dew Point: 32 °F

Location of DavenportLocation

Past Weather in Davenport — Graph

°F

Davenport Temperature Yesterday

Maximum temperature yesterday: 36 °F (at 11:52 am)
Minimum temperature yesterday: 33 °F (at 5:52 am)
Average temperature yesterday: 34 °F

High & Low Weather Summary for the Past Weeks

 TemperatureHumidityPressure
High48 °F (Jan 10, 11:33 am)100% (Jan 3, 1:31 am)30.81 "Hg (Jan 3, 1:31 am)
Low-2 °F (Jan 6, 6:52 am)40% (Jan 15, 2:52 pm)29.23 "Hg (Jan 10, 11:54 am)
Average23 °F77%30.17 "Hg
* Reported Jan 3 12:52 am — Jan 18 12:52 am, Davenport, Weather by CustomWeather, © 2017

Note: Actual official high and low records may vary slightly from our data, if they occured in-between our weather recording intervals... More about our weather records

Advertising

Davenport Weather History for the Previous 24 Hours

Scroll right to see more
 ConditionsComfort  
Time TempWeatherWind HumidityBarometerVisibility
12:52 am
Wed, Jan 18
33 °FFog.9 mph96%30.12 "Hg2 mi
12:43 am33 °FFog.10 mph96%30.10 "Hg2 mi
11:52 pm
Tue, Jan 17
33 °FFog.13 mph96%30.10 "Hg1 mi
10:52 pm33 °FFog.10 mph96%30.10 "Hg2 mi
10:30 pm33 °FFog.14 mph96%30.07 "Hg5 mi
9:59 pm33 °FFog.12 mph96%30.07 "Hg4 mi
9:24 pm33 °FFog.12 mph96%30.06 "Hg2 mi
9:08 pm33 °FFog.13 mph96%30.06 "Hg3 mi
8:29 pm33 °FFog.14 mph96%30.06 "Hg2 mi
8:04 pm33 °FFog.14 mph96%30.05 "Hg3 mi
7:52 pm33 °FFog.13 mph96%30.07 "Hg4 mi
6:52 pm33 °FFog.17 mph96%30.06 "Hg5 mi
5:52 pm34 °FFog.13 mph97%30.05 "Hg2 mi
5:34 pm34 °FFog.13 mph97%30.03 "Hg3 mi
5:07 pm34 °FFog.14 mph97%30.02 "Hg2 mi
4:59 pm34 °FFog.14 mph97%30.01 "Hg3 mi
3:52 pm35 °FFog.14 mph92%30.00 "Hg2 mi
3:14 pm35 °FFog.14 mph92%29.96 "Hg3 mi
3:01 pm35 °FFog.14 mph92%29.96 "Hg2 mi
1:52 pm35 °FFog.15 mph96%29.96 "Hg5 mi
1:40 pm35 °FFog.15 mph96%29.94 "Hg3 mi
1:21 pm35 °FFog.14 mph96%29.93 "Hg2 mi
12:52 pm35 °FFog.15 mph96%29.95 "Hg2 mi
11:52 am36 °FFog.14 mph92%29.95 "Hg6 mi
10:52 am35 °FFog.13 mph96%29.95 "Hg6 mi
10:41 am35 °FFog.14 mph92%29.93 "Hg6 mi
9:52 am34 °FFog.14 mph100%29.95 "Hg3 mi
9:44 am34 °FFog.13 mph97%29.93 "Hg3 mi
9:36 am34 °FFog.13 mph97%29.93 "Hg2 mi
8:52 am33 °FFog.13 mph100%29.94 "Hg1 mi
7:52 am34 °FFog.13 mph97%29.92 "Hg1 mi
7:31 am34 °FFog.13 mph97%29.89 "Hg1 mi
7:05 am34 °FFog.12 mph97%29.88 "Hg3 mi
6:36 am34 °FFog.9 mph97%29.86 "Hg1 mi
6:16 am34 °FFog.9 mph97%29.86 "Hg1 mi
5:52 am33 °FFog.7 mph100%29.87 "Hg1 mi
4:52 am34 °FFog.10 mph97%29.87 "Hg1 mi
4:36 am34 °FFog.8 mph97%29.84 "Hg1 mi
4:22 am34 °FFog.7 mph97%29.84 "Hg2 mi
3:52 am34 °FFog.9 mph97%29.85 "Hg1 mi
2:52 am34 °FFog.7 mph97%29.85 "Hg1 mi
1:52 am34 °FFog.3 mph97%29.83 "Hg1 mi
Weather by CustomWeather, © 2017

See weather overviewHow to use our weather pages